Granite Falls, MN

8:20 PM CST on December 15, 2019 (GMT -0600)
Granite Falls

Weather History for KGDB - October, 2019

Change the Weather History Date:

Tuesday, October 1, 2019

  Actual Average (WUND) Record (WUND)
Temperature  
Mean Temperature 50 °F -  
Max Temperature 52 °F - - (-1)
Min Temperature 48 °F - - (-1)
Degree Days  
Heating Degree Days 15    
Moisture  
Dew Point 47 °F    
Average Humidity 90    
Maximum Humidity 94    
Minimum Humidity 81    
Precipitation  
Precipitation 0.25 in - - ()
Sea Level Pressure  
Sea Level Pressure 30.05 in    
Wind  
Wind Speed 10 mph (NNW)    
Max Wind Speed 17 mph    
Max Gust Speed 23 mph    
Visibility 10 miles    
Events Rain , Thunderstorm    
Averages and records for this station are not official NWS values.
T = Trace of Precipitation, MM = Missing Value Source: NWS Daily Summary

Daily Weather History Graph

Daily Weather History Graph

Search for Another Location

Airport or City:

Astronomy

Oct. 01, 2019 Rise Set
Actual Time 7:19 AM CDT 7:03 PM CDT
Civil Twilight 6:50 AM CDT 7:32 PM CDT
Nautical Twilight 6:16 AM CDT 8:06 PM CDT
Astronomical Twilight 5:42 AM CDT 8:40 PM CDT
Moon 10:44 AM CDT (10/1) 9:08 PM CDT (10/1)
Length of Visible Light 12h 41m
Length of Day
11h 43m
Waxing Crescent, 12% of the Moon is Illuminated
Oct 1
Waxing Crescent
Oct 5
First Quarter
Oct 13
Full
Oct 21
Last Quarter
Oct 27
New

Hourly Weather History & Observations

Time (CDT) Temp. Dew Point Humidity Pressure Visibility Wind Dir Wind Speed Gust Speed Precip Events Conditions
12:15 AM 52.3 °F 50.0 °F 92% 29.95 in 10.0 mi NNW 15.0 mph 23.0 mph N/A   Overcast
12:37 AM 52.0 °F 49.5 °F 91% 29.95 in 10.0 mi NW 12.7 mph 17.3 mph N/A   Overcast
12:56 AM 51.8 °F 49.1 °F 90% 29.97 in 10.0 mi NW 10.4 mph - N/A   Overcast
1:15 AM 51.8 °F 48.9 °F 90% 29.98 in 10.0 mi NW 11.5 mph 17.3 mph N/A   Overcast
1:35 AM 51.8 °F 49.1 °F 90% 29.97 in 10.0 mi NNW 10.4 mph - N/A   Overcast
1:36 AM 51.8 °F 49.1 °F 90% 29.97 in 10.0 mi NNW 9.2 mph - N/A   Overcast
1:59 AM 52.0 °F 48.7 °F 89% 30.03 in 10.0 mi NW 12.7 mph - N/A Thunderstorm Overcast
2:16 AM 51.1 °F 48.4 °F 90% 30.05 in 10.0 mi WNW 9.2 mph - 0.01 in Rain Light Rain
2:55 AM 50.5 °F 48.2 °F 92% 30.00 in 10.0 mi NW 15.0 mph 21.9 mph 0.01 in   Overcast
3:15 AM 50.5 °F 48.2 °F 92% 30.01 in 10.0 mi NNW 10.4 mph - N/A   Mostly Cloudy
3:19 AM 50.5 °F 48.2 °F 92% 29.99 in 10.0 mi NNW 15.0 mph 19.6 mph N/A   Mostly Cloudy
3:38 AM 50.2 °F 47.7 °F 91% 30.01 in 10.0 mi NNW 12.7 mph 18.4 mph N/A Rain Rain
3:56 AM 50.0 °F 47.5 °F 91% 30.02 in 10.0 mi NW 12.7 mph 17.3 mph N/A   Overcast
4:15 AM 50.0 °F 47.3 °F 90% 30.04 in 10.0 mi NW 10.4 mph - N/A   Overcast
4:16 AM 50.0 °F 47.3 °F 90% 30.04 in 10.0 mi NW 11.5 mph 16.1 mph N/A   Overcast
4:35 AM 50.0 °F 47.3 °F 90% 30.06 in 10.0 mi NNW 11.5 mph 16.1 mph 0.01 in Rain Rain
4:58 AM 49.1 °F 47.1 °F 93% 30.06 in 10.0 mi NNW 10.4 mph - 0.02 in Rain Light Rain
5:16 AM 49.1 °F 47.3 °F 93% 30.02 in 7.0 mi NNW 16.1 mph 23.0 mph 0.02 in Rain Light Rain
5:35 AM 48.2 °F 46.4 °F 93% 30.01 in 10.0 mi NNW 17.3 mph 20.7 mph 0.03 in Rain Light Rain
5:36 AM 48.2 °F 46.4 °F 93% 30.01 in 10.0 mi NNW 16.1 mph 20.7 mph 0.03 in Rain Light Rain
5:55 AM 48.2 °F 46.4 °F 93% 30.03 in 10.0 mi NW 12.7 mph 21.9 mph 0.03 in   Overcast
5:56 AM 48.2 °F 46.4 °F 93% 30.03 in 10.0 mi NNW 15.0 mph 21.9 mph 0.03 in   Overcast
6:19 AM 48.2 °F 46.0 °F 92% 30.04 in 10.0 mi NW 9.2 mph - N/A   Overcast
6:36 AM 48.2 °F 46.0 °F 92% 30.03 in 10.0 mi NNW 8.1 mph - N/A   Overcast
6:56 AM 48.2 °F 45.9 °F 92% 30.04 in 10.0 mi NNW 5.8 mph - N/A   Overcast
7:15 AM 48.2 °F 45.9 °F 92% 30.04 in 10.0 mi NNW 8.1 mph - 0.01 in Rain Rain
7:39 AM 48.2 °F 46.4 °F 93% 30.05 in 10.0 mi NW 10.4 mph - 0.01 in   Overcast
7:56 AM 48.2 °F 46.0 °F 92% 30.06 in 10.0 mi NNW 8.1 mph - 0.01 in   Overcast
8:15 AM 48.0 °F 45.9 °F 92% 30.04 in 10.0 mi NNW 11.5 mph - N/A   Light Drizzle
8:16 AM 48.0 °F 45.9 °F 92% 30.04 in 10.0 mi NNW 9.2 mph - N/A Thunderstorm Unknown
8:35 AM 48.2 °F 45.7 °F 91% 30.06 in 10.0 mi NNW 8.1 mph - N/A Rain Light Rain
8:58 AM 48.2 °F 45.7 °F 91% 30.07 in 10.0 mi NW 8.1 mph - N/A   Overcast
9:17 AM 48.2 °F 45.9 °F 92% 30.07 in 10.0 mi NNW 9.2 mph - N/A   Overcast
9:36 AM 48.2 °F 45.5 °F 90% 30.09 in 10.0 mi NW 9.2 mph - N/A   Overcast
9:55 AM 48.4 °F 45.9 °F 91% 30.08 in 10.0 mi NNW 10.4 mph - N/A   Overcast
9:56 AM 48.4 °F 45.9 °F 91% 30.08 in 10.0 mi NNW 10.4 mph - N/A   Overcast
10:15 AM 48.7 °F 46.2 °F 91% 30.08 in 10.0 mi NNW 10.4 mph - N/A   Overcast
10:55 AM 48.6 °F 45.9 °F 90% 30.10 in 10.0 mi North 5.8 mph - 0.01 in   Drizzle
11:15 AM 49.1 °F 46.4 °F 90% 30.07 in 10.0 mi North 9.2 mph - N/A Rain Light Rain
11:16 AM 49.1 °F 46.4 °F 90% 30.07 in 10.0 mi North 8.1 mph - N/A Rain Light Rain
11:35 AM 49.1 °F 46.4 °F 90% 30.07 in 10.0 mi North 12.7 mph - N/A Rain Light Rain
11:36 AM 49.1 °F 46.6 °F 91% 30.07 in 10.0 mi North 12.7 mph - N/A Rain Light Rain
12:16 PM 49.1 °F 46.2 °F 90% 30.09 in 10.0 mi North 8.1 mph 19.6 mph N/A   Overcast
12:36 PM 48.9 °F 46.0 °F 90% 30.09 in 10.0 mi North 9.2 mph - N/A   Drizzle
12:55 PM 48.6 °F 46.4 °F 92% 30.09 in 5.0 mi North 10.4 mph - 0.04 in Rain Light Rain
12:56 PM 48.4 °F 46.2 °F 92% 30.09 in 5.0 mi North 10.4 mph - 0.04 in Rain Light Rain
1:15 PM 49.1 °F 46.8 °F 92% 30.08 in 10.0 mi North 11.5 mph - 0.01 in Rain Rain
1:19 PM 49.1 °F 46.6 °F 91% 30.07 in 10.0 mi North 11.5 mph - 0.01 in   Light Drizzle
1:37 PM 49.1 °F 46.6 °F 91% 30.07 in 10.0 mi North 9.2 mph 16.1 mph 0.03 in Rain Rain
1:56 PM 49.1 °F 46.8 °F 92% 30.07 in 10.0 mi North 8.1 mph - 0.03 in   Drizzle
2:15 PM 49.1 °F 46.8 °F 92% 30.07 in 10.0 mi North 6.9 mph - 0.01 in Rain Rain
2:16 PM 49.1 °F 46.9 °F 92% 30.07 in 10.0 mi North 9.2 mph - 0.01 in Rain Rain
2:35 PM 49.1 °F 46.9 °F 92% 30.07 in 10.0 mi North 9.2 mph - 0.02 in Rain Light Rain
2:36 PM 49.1 °F 46.9 °F 92% 30.07 in 10.0 mi North 9.2 mph - 0.02 in   Light Drizzle
2:58 PM 49.1 °F 46.8 °F 92% 30.09 in 10.0 mi NW 5.8 mph - 0.02 in Rain Light Rain
3:16 PM 49.1 °F 46.9 °F 92% 30.07 in 4.0 mi North 9.2 mph - 0.05 in Rain Heavy Rain
3:35 PM 49.3 °F 47.5 °F 94% 30.06 in 7.0 mi North 10.4 mph - 0.08 in Rain Rain
3:55 PM 50.0 °F 47.3 °F 90% 30.05 in 10.0 mi North 8.1 mph - 0.08 in   Light Drizzle
3:56 PM 50.0 °F 47.3 °F 90% 30.05 in 10.0 mi North 10.4 mph - 0.08 in   Light Drizzle
4:15 PM 50.5 °F 47.7 °F 90% 30.05 in 10.0 mi North 13.8 mph - N/A   Overcast
4:20 PM 50.5 °F 47.5 °F 89% 30.05 in 10.0 mi North 11.5 mph - N/A   Overcast
4:37 PM 50.5 °F 47.5 °F 89% 30.06 in 10.0 mi North 10.4 mph - N/A   Overcast
4:55 PM 50.5 °F 48.0 °F 91% 30.04 in 10.0 mi North 8.1 mph - N/A   Overcast
5:15 PM 50.9 °F 48.6 °F 92% 30.04 in 10.0 mi North 8.1 mph - N/A   Overcast
5:16 PM 50.9 °F 48.6 °F 92% 30.04 in 10.0 mi North 8.1 mph - N/A   Overcast
5:35 PM 50.9 °F 48.6 °F 92% 30.03 in 10.0 mi NNE 8.1 mph - N/A   Overcast
5:36 PM 50.9 °F 48.6 °F 92% 30.03 in 10.0 mi NNE 6.9 mph - N/A   Overcast
5:58 PM 51.4 °F 48.4 °F 89% 30.04 in 10.0 mi North 5.8 mph - N/A   Overcast
6:17 PM 51.8 °F 48.4 °F 88% 30.03 in 10.0 mi North 8.1 mph - N/A   Overcast
6:36 PM 51.8 °F 48.6 °F 89% 30.03 in 10.0 mi North 5.8 mph - N/A   Overcast
6:55 PM 52.0 °F 48.4 °F 88% 30.04 in 10.0 mi NNW 5.8 mph - N/A   Overcast
6:56 PM 52.0 °F 48.6 °F 88% 30.05 in 10.0 mi NNW 5.8 mph - N/A   Overcast
7:15 PM 52.0 °F 48.7 °F 89% 30.04 in 10.0 mi North 5.8 mph - N/A   Overcast
7:37 PM 52.2 °F 49.1 °F 89% 30.05 in 10.0 mi Calm Calm - N/A   Overcast
7:56 PM 52.3 °F 49.3 °F 89% 30.05 in 10.0 mi NNW 3.5 mph - N/A   Overcast
8:15 PM 52.3 °F 49.3 °F 89% 30.05 in 10.0 mi North 3.5 mph - N/A   Overcast
8:16 PM 52.3 °F 49.3 °F 89% 30.05 in 10.0 mi NNW 3.5 mph - N/A   Overcast
8:35 PM 52.7 °F 48.6 °F 86% 30.06 in 10.0 mi NNW 6.9 mph - N/A   Overcast
8:36 PM 52.7 °F 48.4 °F 85% 30.06 in 10.0 mi NNW 6.9 mph - N/A   Overcast
8:59 PM 52.9 °F 47.3 °F 81% 30.06 in 10.0 mi North 8.1 mph - N/A   Overcast
9:16 PM 52.7 °F 46.9 °F 81% 30.06 in 10.0 mi North 6.9 mph - N/A   Overcast
9:36 PM 52.5 °F 46.9 °F 81% 30.08 in 10.0 mi North 5.8 mph - N/A   Overcast
9:55 PM 52.3 °F 47.5 °F 84% 30.08 in 10.0 mi NNW 6.9 mph - N/A   Overcast
10:15 PM 52.3 °F 47.8 °F 85% 30.07 in 10.0 mi NNW 5.8 mph - N/A   Overcast
10:19 PM 52.3 °F 47.8 °F 85% 30.07 in 10.0 mi NNW 5.8 mph - N/A   Overcast
10:38 PM 52.2 °F 47.5 °F 84% 30.07 in 10.0 mi NNW 6.9 mph - N/A   Overcast
10:55 PM 52.0 °F 46.9 °F 83% 30.08 in 10.0 mi NNW 6.9 mph - N/A   Overcast
11:15 PM 51.1 °F 46.4 °F 84% 30.07 in 10.0 mi NNW 6.9 mph - N/A   Overcast
11:16 PM 51.1 °F 46.4 °F 84% 30.07 in 10.0 mi NNW 6.9 mph - N/A   Mostly Cloudy
11:35 PM 50.7 °F 45.9 °F 83% 30.07 in 10.0 mi NNW 11.5 mph 16.1 mph N/A   Mostly Cloudy
11:58 PM 50.9 °F 45.9 °F 83% 30.08 in 10.0 mi North 9.2 mph - N/A   Overcast